Sheridan, WY

3:26 AM MST on February 25, 2018 (GMT -0700)
Sheridan County

Weather History for KSHR - September, 2012

Change the Weather History Date:

Sunday, September 9, 2012

  Actual Average Record
Temperature  
Mean Temperature 67 °F 61 °F  
Max Temperature 92 °F 78 °F 97 °F (1998)
Min Temperature 42 °F 44 °F 28 °F (1929)
Degree Days  
Heating Degree Days 0 5  
Month to date heating degree days 23 38  
Since 1 July heating degree days 42 100  
Cooling Degree Days 2 1  
Month to date cooling degree days 17 17  
Year to date cooling degree days 654 407  
Growing Degree Days 16 (Base 50)    
Moisture  
Dew Point 32 °F    
Average Humidity 43    
Maximum Humidity 76    
Minimum Humidity 9    
Precipitation  
Precipitation 0.00 in 0.05 in 0.44 in (1989)
Month to date precipitation T 0.35  
Year to date precipitation 6.99 10.40  
Sea Level Pressure  
Sea Level Pressure 29.90 in    
Wind  
Wind Speed 3 mph (South)    
Max Wind Speed 10 mph    
Max Gust Speed 16 mph    
Visibility 10 miles    
Events      
T = Trace of Precipitation, MM = Missing Value Source: NWS Daily Summary

Daily Weather History Graph

Daily Weather History Graph

Search for Another Location

Airport or City:

Trip Planner

Search our weather history database for the weather conditions in past years. The results will help you decide how hot, cold, wet, or windy it might be!

Date:

Astronomy

Sep. 09, 2012 Rise Set
Actual Time 6:40 AM MDT 7:28 PM MDT
Civil Twilight 6:10 AM MDT 7:58 PM MDT
Nautical Twilight 5:35 AM MDT 8:33 PM MDT
Astronomical Twilight 4:58 AM MDT 9:10 PM MDT
Moon 12:00 AM MDT (9/9) 3:27 PM MDT (9/9)
Length of Visible Light 13h 47m
Length of Day
12h 48m
Last Quarter, 39% of the Moon is Illuminated
Sep 9
Last Quarter
Sep 15
New
Sep 22
First Quarter
Sep 29
Full
Oct 8
Last Quarter

Hourly Weather History & Observations

Time (MDT) Temp. Windchill Dew Point Humidity Pressure Visibility Wind Dir Wind Speed Gust Speed Precip Events Conditions
12:53 AM 50.0 °F - 37.9 °F 63% 30.08 in 10.0 mi Calm Calm - N/A   Clear
1:53 AM 46.0 °F - 37.0 °F 71% 30.08 in 10.0 mi Calm Calm - N/A   Clear
2:53 AM 45.0 °F 43.5 °F 37.0 °F 74% 30.06 in 10.0 mi West 3.5 mph - N/A   Clear
3:53 AM 43.0 °F - 36.0 °F 76% 30.05 in 10.0 mi Calm Calm - N/A   Clear
4:53 AM 43.0 °F - 36.0 °F 76% 30.04 in 10.0 mi Calm Calm - N/A   Clear
5:53 AM 43.0 °F - 36.0 °F 76% 30.03 in 10.0 mi Calm Calm - N/A   Clear
6:53 AM 42.1 °F - 36.0 °F 79% 30.03 in 10.0 mi Calm Calm - N/A   Clear
7:53 AM 50.0 °F - 37.0 °F 61% 30.05 in 10.0 mi Calm Calm - N/A   Clear
8:53 AM 57.9 °F - 35.1 °F 42% 30.02 in 10.0 mi Calm Calm - N/A   Clear
9:53 AM 66.9 °F - 34.0 °F 30% 30.00 in 10.0 mi Calm Calm - N/A   Clear
10:53 AM 75.9 °F - 35.1 °F 23% 29.96 in 10.0 mi North 5.8 mph - N/A   Clear
11:53 AM 82.9 °F - 33.1 °F 17% 29.92 in 10.0 mi NNW 5.8 mph - N/A   Clear
12:53 PM 90.0 °F - 27.0 °F 10% 29.87 in 10.0 mi NE 8.1 mph - N/A   Clear
1:53 PM 91.0 °F - 25.0 °F 9% 29.84 in 10.0 mi Variable 6.9 mph - N/A   Clear
2:53 PM 91.0 °F - 24.1 °F 9% 29.82 in 10.0 mi Variable 4.6 mph - N/A   Clear
3:53 PM 90.0 °F - 23.0 °F 9% 29.79 in 10.0 mi East 4.6 mph - N/A   Clear
4:53 PM 90.0 °F - 24.1 °F 9% 29.77 in 10.0 mi ESE 4.6 mph - N/A   Clear
5:53 PM 90.0 °F - 23.0 °F 9% 29.76 in 10.0 mi Calm Calm - N/A   Clear
6:53 PM 73.9 °F - 48.9 °F 41% 29.79 in 10.0 mi WSW 3.5 mph - N/A   Clear
7:53 PM 69.1 °F - 35.1 °F 29% 29.79 in 10.0 mi Calm Calm - N/A   Clear
8:53 PM 62.1 °F - 34.0 °F 35% 29.79 in 10.0 mi SSW 9.2 mph - N/A   Clear
9:53 PM 64.0 °F - 32.0 °F 30% 29.76 in 10.0 mi Calm Calm - N/A   Clear
10:53 PM 59.0 °F - 34.0 °F 39% 29.73 in 10.0 mi SSW 4.6 mph - N/A   Clear
11:53 PM 63.0 °F - 28.0 °F 27% 29.71 in 10.0 mi South 5.8 mph - N/A   Clear